Regional Weather Roundup
Issued by NWS Boston, MA

Current Version | Previous Version | Text Only | Print | Product List | Glossary Off
Versions: 1 2 3 4 5 6 7 8 9 10 11 12 13 14 15 16 17 18 19 20 21 22 23 24 25 26 27 28 29 30 31 32 33 34 35 36 37 38 39 40 41 42 43 44 45 46 47 48 49 50
000 ASUS41 KBOX 232210 RWRBOX REGIONAL WEATHER ROUNDUP NATIONAL WEATHER SERVICE BOSTON/NORTON MA 500 PM EST WED JAN 23 2019 NOTE: "FAIR" INDICATES FEW OR NO CLOUDS BELOW 12,000 FEET WITH NO SIGNIFICANT WEATHER AND/OR OBSTRUCTIONS TO VISIBILITY. MAZALL-232300- EASTERN MASSACHUSETTS CITY SKY/WX TMP DP RH WIND PRES REMARKS BOSTON CLOUDY 41 29 62 SW13 30.09F BEVERLY CLOUDY 41 27 57 SW14G23 30.07F LAWRENCE CLOUDY 39 27 62 SW17G23 30.07F WCI 30 BEDFORD CLOUDY 40 26 57 SW16G22 30.07F WCI 31 BLUE HILL N/A 38 29 70 S21G28 30.06F WCI 28 NORWOOD CLOUDY 43 30 60 S10 30.09F MARSHFIELD CLOUDY 45 34 65 SW16 30.11F PLYMOUTH CLOUDY 43 34 70 SW9G21 30.13F TAUNTON CLOUDY 43 33 68 S8 30.13F NEW BEDFORD CLOUDY 43 38 82 S10 30.14F $$ MAZALL-232300- CAPE COD AND THE ISLANDS CITY SKY/WX TMP DP RH WIND PRES REMARKS FALMOUTH CLOUDY 45 37 76 SW15 30.15S HYANNIS CLOUDY 41 37 86 S9 30.15F CHATHAM CLOUDY 41 37 86 SW8G20 30.17F PROVINCETOWN CLOUDY 41 37 86 S16G22 30.14F NANTUCKET CLOUDY 41 38 89 S10 30.20F MARTHAS VNYRD CLOUDY 44 42 93 S14 30.17F $$ MAZALL-232300- CENTRAL AND WESTERN MASSACHUSETTS CITY SKY/WX TMP DP RH WIND PRES REMARKS WORCESTER CLOUDY 35 26 69 SW18G28 30.04F WCI 24 FITCHBURG CLOUDY 38 28 67 SW16G25 30.06F WCI 29 ORANGE CLOUDY 36 25 64 S9 30.05F WCI 29 SPRINGFIELD CLOUDY 36 25 64 S14 30.06 WCI 27 WESTFIELD CLOUDY 36 24 62 S13 30.05F WCI 27 NORTH ADAMS LGT RAIN 37 33 85 VRB5 29.98F PITTSFIELD MIX PCPN 36 29 75 SW18G29 29.96F WCI 26 $$ RIZALL-232300- RHODE ISLAND CITY SKY/WX TMP DP RH WIND PRES REMARKS PROVIDENCE CLOUDY 40 32 73 SW9 30.13F NEWPORT CLOUDY 43 36 76 S8 30.14F BLOCK ISLAND CLOUDY 43 39 86 S7 30.15 SMITHFIELD CLOUDY 38 30 73 SW8 30.10F WESTERLY CLOUDY 43 36 76 SW6 30.14F $$ CTZALL-232300- CONNECTICUT CITY SKY/WX TMP DP RH WIND PRES REMARKS BRADLEY INTL CLOUDY 36 26 67 S9 30.09F WCI 29 HARTFORD CLOUDY 36 27 69 S7 30.10F WCI 30 BRIDGEPORT CLOUDY 40 29 64 S6 30.11F DANBURY CLOUDY 34 29 82 CALM 30.09F GROTON CLOUDY 41 35 79 SW6 30.13F NEW HAVEN CLOUDY 40 32 73 S6 30.11F CHESTER CLOUDY 41 30 65 VRB7G15 30.10F MERIDEN CLOUDY 34 30 85 CALM 30.11F WILLIMANTIC CLOUDY 38 28 67 S5 30.11F OXFORD CLOUDY 33 27 78 S3 30.08F $$ MEZ002-015-021-024-NHZ003-005-008-011-012-014-VTZ005-008-232300- NORTHERN NEW ENGLAND CITY SKY/WX TMP DP RH WIND PRES REMARKS PORTLAND ME LGT RAIN 35 23 61 CALM 30.05F BANGOR ME FRZ RAIN 22 16 78 NE3 30.06F CONCORD NH CLOUDY 37 29 72 S7 30.00F WCI 32 MANCHESTER NH CLOUDY 40 30 67 S15G21 30.01F WCI 32 NASHUA NH CLOUDY 40 30 67 VRB5 30.04F PORTSMOUTH NH CLOUDY 39 28 62 S8G16 30.02 JAFFREY NH CLOUDY 35 28 75 S10G21 29.99F WCI 27 KEENE NH CLOUDY 37 29 72 S13G21 30.00F WCI 29 BURLINGTON VT CLOUDY 32 23 69 S25G35 29.87F WCI 19 MT. WASHINGTON BLWGSNOW 25 25 100 W61G67 N/A VSB 0 WCI 3 $$ NYZ052-076-232300- EASTERN NEW YORK CITY SKY/WX TMP DP RH WIND PRES REMARKS ALBANY LGT RAIN 36 27 69 S18G28 29.97F WCI 26 NEW YORK CITY MOCLDY 42 31 64 S7 30.09F $$ ANZALL-232300- MARINE OBSERVATIONS STATION/POSITION TIME TEMP WIND PRES VSBY WAVE AIR SEA DIR/SP/G HT/PER (UTC) (F) (DEG/KT/KT) (MB) (MI) (FT/S) BOSTON BUOY 2150 42 41 180/ 16/ 21 1019.0F 3/ 4 BUZZARDS BAY NOT AVBL NANTUCKET SOUND 2150 38 34 170/ 14/ 16 1021.6F 2/ 4 MASS BAY-STELLWA 2104 41 40 220/ 17/ 21 1018.5 1 7/8 5/ 5 ISLE OF SHOALS NOT AVBL S OF BLOCK IS 2130 44 N/A 6/ 7 $$ ......................KEY......................... SKY/WX - SKY CONDITION/PRESENT WEATHER TMP - TEMPERATURE IN FAHRENHEIT DWPT - DEWPOINT IN FAHRENHEIT RH - RELATIVE HUMIDITY IN PERCENT WIND - DIRECTION AND SPEED IN MPH PRES - MEAN SEA LEVEL PRESSURE IN INCHES OF HG WCI - WIND CHILL INDEX VSB - VISIBILITY IN MILES HX - HEAT INDEX TC - TEMPERATURE IN CELSIUS VRB - VARIABLE WIND DIRECTION N/A - NOT AVAILABLE

USA.gov is the U.S. government's official web portal to all federal, state and local government web resources and services.